Location: Altenst�hlen
(53.5567°N, 8.9425°E)
Time: 12:10:54
(UTC+00:00)

Okean 3 Rocket - Pass Details

Date: 23 October 2019
Orbit: 615 x 645 km, 82.5° (Epoch: 14 November)

Event Time Altitude Azimuth Distance (km) Brightness Sun altitude
Rises 17:55:20 0° 350° (N) 2,967 7.2 -16.2°
Reaches altitude 10° 17:57:39 10° 355° (N) 2,049 6.3 -16.5°
Maximum altitude 18:02:08 59° 75° (ENE) 741 3.6 -17.2°
Enters shadow 18:05:53 14° 153° (SSE) 1,748 5.6 -17.7°
